Volver al catálogo

STARLINK-36853

ActivoComunicacionesVLEO
NORAD 68097·PAYLOAD·🇺🇸 United States

Lanzado Mar 4, 2026 desde Vandenberg Space Force Base

Loading…

Próximos Pases (próximas 24 horas)

TLE

ActualizadoSource: CelesTrak SupGP

Época: Sep 15, 2026, 03:44 UTC

1 68097C 26042AE  26258.15604167  .00062597  00000+0  18494-2 0  2581
2 68097  53.1602  14.7626 0001140  85.2937  86.2850 15.34360835    13

Sigue STARLINK-36853 en tiempo real con AllMySat

Download on the App Store